When you browse on this site, cookies collect data to enhance your experience and personalize the content and advertising you see.
Visit our Privacy Policy to learn more. By continuing to use the site, you agree to this use of cookies and data.
  • en France
  • Liste des pays
  • À 7 jours
  • Température de l'eau
  • Carte météo
  • Widgets météo
  • user-avatar
    Se connecter

    Météo par heure à Radzikowo

    Ce jour, 15 Octobre, Mardi

    Heure Température Précipitation Vent Pression Humidité
    00:00 +10°C° 0 mm 2 m/s 752 mmHg 85%
    01:00 +10°C° 0 mm 2 m/s 752 mmHg 84%
    02:00 +10°C° 0 mm 3 m/s 752 mmHg 83%
    03:00 +10°C° 0 mm 3 m/s 751 mmHg 82%
    04:00 +10°C° 0 mm 3 m/s 751 mmHg 81%
    05:00 +10°C° 0 mm 4 m/s 751 mmHg 81%
    06:00 +11°C° 0 mm 4 m/s 751 mmHg 81%
    07:00 +10°C° 0 mm 5 m/s 751 mmHg 81%
    08:00 +13°C° 0 mm 5 m/s 750 mmHg 79%
    09:00 +14°C° 0 mm 4 m/s 750 mmHg 76%
    10:00 +17°C° 0 mm 4 m/s 749 mmHg 74%
    11:00 +18°C° 0 mm 4 m/s 749 mmHg 71%
    12:00 +19°C° 0 mm 4 m/s 748 mmHg 68%
    13:00 +20°C° 0 mm 4 m/s 748 mmHg 66%
    14:00 +19°C° 0 mm 4 m/s 747 mmHg 68%
    15:00 +19°C° 0 mm 3 m/s 747 mmHg 69%
    16:00 +18°C° 0 mm 2 m/s 746 mmHg 71%
    17:00 +17°C° 0 mm 3 m/s 746 mmHg 75%
    18:00 +16°C° 0 mm 3 m/s 746 mmHg 78%
    19:00 +14°C° 0 mm 3 m/s 746 mmHg 81%
    20:00 +14°C° 0 mm 3 m/s 745 mmHg 83%
    21:00 +14°C° 0 mm 3 m/s 745 mmHg 84%
    22:00 +13°C° 0 mm 3 m/s 745 mmHg 85%
    23:00 +13°C° 0 mm 3 m/s 745 mmHg 85%

    Demain, 16 Octobre, Mercredi

    Heure Température Précipitation Vent Pression Humidité
    00:00 +13°C° 0 mm 3 m/s 745 mmHg 84%
    01:00 +13°C° 0 mm 3 m/s 745 mmHg 83%
    02:00 +13°C° 0 mm 3 m/s 744 mmHg 83%
    03:00 +13°C° 0 mm 3 m/s 744 mmHg 83%
    04:00 +12°C° 0 mm 3 m/s 743 mmHg 83%
    05:00 +12°C° 0 mm 3 m/s 743 mmHg 84%
    06:00 +12°C° 0 mm 3 m/s 743 mmHg 86%
    07:00 +12°C° 0 mm 3 m/s 743 mmHg 87%
    08:00 +13°C° 0 mm 4 m/s 743 mmHg 85%
    09:00 +14°C° 0 mm 5 m/s 743 mmHg 84%
    10:00 +15°C° 0 mm 5 m/s 744 mmHg 82%
    11:00 +14°C° 0.1 mm 6 m/s 744 mmHg 81%
    12:00 +12°C° 0.1 mm 7 m/s 744 mmHg 79%
    13:00 +11°C° 0.1 mm 8 m/s 745 mmHg 77%
    14:00 +11°C° 0 mm 7 m/s 745 mmHg 74%
    15:00 +11°C° 0 mm 7 m/s 745 mmHg 72%
    16:00 +11°C° 0 mm 7 m/s 745 mmHg 69%
    17:00 +11°C° 0.3 mm 7 m/s 745 mmHg 72%
    18:00 +11°C° 0.3 mm 7 m/s 745 mmHg 76%
    19:00 +10°C° 0.3 mm 8 m/s 744 mmHg 80%
    20:00 +10°C° 3.2 mm 8 m/s 744 mmHg 83%
    21:00 +10°C° 3.2 mm 9 m/s 744 mmHg 87%
    22:00 +11°C° 3.2 mm 10 m/s 744 mmHg 91%
    23:00 +11°C° 3.6 mm 10 m/s 744 mmHg 91%

    Après-demain, 17 Octobre, Jeudi

    Heure Température Précipitation Vent Pression Humidité
    00:00 +11°C° 3.6 mm 10 m/s 745 mmHg 91%
    01:00 +11°C° 3.6 mm 10 m/s 745 mmHg 91%
    02:00 +11°C° 0.7 mm 9 m/s 746 mmHg 91%
    03:00 +11°C° 0.7 mm 9 m/s 746 mmHg 91%
    04:00 +11°C° 0.7 mm 8 m/s 747 mmHg 90%
    05:00 +11°C° 0.1 mm 7 m/s 748 mmHg 91%
    06:00 +11°C° 0.1 mm 7 m/s 748 mmHg 91%
    07:00 +10°C° 0.1 mm 6 m/s 749 mmHg 91%
    08:00 +12°C° 0 mm 5 m/s 749 mmHg 90%
    09:00 +12°C° 0 mm 5 m/s 750 mmHg 90%
    10:00 +12°C° 0 mm 4 m/s 751 mmHg 89%
    11:00 +12°C° 0 mm 4 m/s 751 mmHg 88%
    12:00 +13°C° 0 mm 3 m/s 751 mmHg 87%
    13:00 +13°C° 0 mm 3 m/s 751 mmHg 86%
    14:00 +14°C° 0 mm 2 m/s 751 mmHg 86%
    15:00 +14°C° 0 mm 2 m/s 752 mmHg 85%
    16:00 +14°C° 0 mm 1 m/s 752 mmHg 85%
    17:00 +14°C° 0 mm 2 m/s 752 mmHg 86%
    18:00 +14°C° 0 mm 2 m/s 752 mmHg 86%
    19:00 +13°C° 0 mm 2 m/s 752 mmHg 87%
    20:00 +13°C° 0 mm 2 m/s 752 mmHg 86%
    21:00 +13°C° 0 mm 2 m/s 752 mmHg 85%
    22:00 +13°C° 0 mm 2 m/s 753 mmHg 84%
    23:00 +12°C° 0 mm 2 m/s 753 mmHg 86%

    18 Octobre, Vendredi

    Heure Température Précipitation Vent Pression Humidité
    00:00 +12°C° 0 mm 2 m/s 753 mmHg 88%
    01:00 +10°C° 0 mm 2 m/s 753 mmHg 90%
    02:00 +10°C° 0 mm 2 m/s 753 mmHg 91%
    03:00 +10°C° 0 mm 2 m/s 753 mmHg 91%
    04:00 +10°C° 0 mm 2 m/s 753 mmHg 91%
    05:00 +11°C° 0.1 mm 1 m/s 753 mmHg 92%
    06:00 +12°C° 0.1 mm 1 m/s 753 mmHg 92%
    07:00 +12°C° 0.1 mm 1 m/s 753 mmHg 93%
    08:00 +12°C° 0 mm 1 m/s 753 mmHg 90%
    09:00 +13°C° 0 mm 1 m/s 754 mmHg 86%
    10:00 +14°C° 0 mm 1 m/s 754 mmHg 83%
    11:00 +15°C° 0 mm 1 m/s 754 mmHg 79%
    12:00 +15°C° 0 mm 1 m/s 754 mmHg 75%
    13:00 +16°C° 0 mm 2 m/s 754 mmHg 71%
    14:00 +16°C° 0 mm 2 m/s 753 mmHg 73%
    15:00 +15°C° 0 mm 1 m/s 753 mmHg 75%
    16:00 +15°C° 0 mm 1 m/s 753 mmHg 77%
    17:00 +14°C° 0 mm 2 m/s 753 mmHg 78%
    18:00 +13°C° 0 mm 2 m/s 753 mmHg 79%
    19:00 +13°C° 0 mm 2 m/s 753 mmHg 80%
    20:00 +13°C° 0 mm 2 m/s 753 mmHg 78%
    21:00 +13°C° 0 mm 2 m/s 753 mmHg 77%
    22:00 +12°C° 0 mm 3 m/s 753 mmHg 75%
    23:00 +12°C° 0 mm 3 m/s 753 mmHg 75%

    19 Octobre, Samedi

    Heure Température Précipitation Vent Pression Humidité
    00:00 +12°C° 0 mm 3 m/s 753 mmHg 76%
    01:00 +13°C° 0 mm 3 m/s 753 mmHg 77%
    02:00 +12°C° 0 mm 3 m/s 753 mmHg 77%
    03:00 +12°C° 0 mm 3 m/s 753 mmHg 78%
    04:00 +12°C° 0 mm 3 m/s 753 mmHg 79%
    05:00 +12°C° 0 mm 3 m/s 753 mmHg 79%
    06:00 +12°C° 0 mm 3 m/s 753 mmHg 80%
    07:00 +12°C° 0 mm 3 m/s 753 mmHg 80%
    08:00 +12°C° 0 mm 3 m/s 753 mmHg 79%
    09:00 +13°C° 0 mm 4 m/s 753 mmHg 77%
    10:00 +13°C° 0 mm 4 m/s 753 mmHg 75%
    11:00 +15°C° 0 mm 4 m/s 753 mmHg 71%
    12:00 +17°C° 0 mm 4 m/s 753 mmHg 67%
    13:00 +18°C° 0 mm 4 m/s 753 mmHg 63%
    14:00 +17°C° 0 mm 3 m/s 752 mmHg 66%
    15:00 +17°C° 0 mm 3 m/s 752 mmHg 69%
    16:00 +16°C° 0 mm 2 m/s 752 mmHg 72%
    17:00 +14°C° 0 mm 3 m/s 752 mmHg 75%
    18:00 +14°C° 0 mm 3 m/s 752 mmHg 78%
    19:00 +13°C° 0 mm 3 m/s 752 mmHg 81%
    20:00 +13°C° 0 mm 3 m/s 751 mmHg 83%
    21:00 +12°C° 0 mm 3 m/s 751 mmHg 84%
    22:00 +12°C° 0 mm 3 m/s 751 mmHg 86%
    23:00 +12°C° 0 mm 3 m/s 751 mmHg 88%

    20 Octobre, Dimanche

    Heure Température Précipitation Vent Pression Humidité
    00:00 +12°C° 0 mm 3 m/s 750 mmHg 89%
    01:00 +12°C° 0 mm 3 m/s 750 mmHg 90%
    02:00 +12°C° 0 mm 3 m/s 750 mmHg 90%
    03:00 +11°C° 0 mm 3 m/s 749 mmHg 91%
    04:00 +11°C° 0 mm 3 m/s 749 mmHg 91%
    05:00 +11°C° 0 mm 4 m/s 748 mmHg 91%
    06:00 +11°C° 0 mm 4 m/s 748 mmHg 91%
    07:00 +12°C° 0 mm 4 m/s 748 mmHg 90%
    08:00 +13°C° 0 mm 4 m/s 747 mmHg 84%
    09:00 +15°C° 0 mm 5 m/s 747 mmHg 77%
    10:00 +16°C° 0 mm 5 m/s 746 mmHg 71%
    11:00 +17°C° 0 mm 5 m/s 746 mmHg 68%
    12:00 +17°C° 0 mm 5 m/s 746 mmHg 65%
    13:00 +19°C° 0 mm 5 m/s 746 mmHg 62%
    14:00 +18°C° 0 mm 4 m/s 746 mmHg 66%
    15:00 +17°C° 0 mm 4 m/s 746 mmHg 70%
    16:00 +17°C° 0 mm 4 m/s 746 mmHg 73%
    17:00 +15°C° 0 mm 4 m/s 747 mmHg 76%
    18:00 +14°C° 0 mm 4 m/s 747 mmHg 79%
    19:00 +13°C° 0 mm 4 m/s 748 mmHg 82%
    20:00 +13°C° 0 mm 3 m/s 748 mmHg 82%
    21:00 +13°C° 0 mm 2 m/s 749 mmHg 83%
    22:00 +13°C° 0 mm 2 m/s 749 mmHg 83%
    23:00 +12°C° 0 mm 2 m/s 749 mmHg 83%
    Voir plus